Location: Tel Aviv
(32.0670°N, 34.7670°E)
Time: 21:37:52
(UTC+02:00)

CUTE-I - Pass Details

Date: 20 December 2025
Orbit: 805 x 817 km, 98.7° (Epoch: 21 January)

Event Time Altitude Azimuth Distance (km) Brightness Sun altitude
Rises 05:09:10 0° 27° (NNE) 3,345 ? -18.1°
Reaches altitude 10° 05:11:51 10° 39° (NE) 2,411 ? -17.5°
Maximum altitude 05:16:22 28° 97° (E) 1,497 ? -16.6°
Drops below altitude 10° 05:20:52 10° 155° (SSE) 2,401 ? -15.7°
Sets 05:23:31 0° 167° (SSE) 3,329 ? -15.2°
